Volver al catálogo

KUIPER-00169

ActivoComunicacionesLEO
NORAD 65782·PAYLOAD·🇺🇸 United States

Lanzado Sep 25, 2025 desde Cape Canaveral Space Force Station

Loading…

Próximos Pases (próximas 24 horas)

TLE

ActualizadoSource: CelesTrak SupGP

Época: Sep 14, 2026, 20:23 UTC

1 65782C 25217W   26257.84976852  .00000474  00000+0  62103-4 0  2573
2 65782  51.9000 276.6597 0000607  88.7413 116.0627 14.79917977    16

Sigue KUIPER-00169 en tiempo real con AllMySat

Download on the App Store